IRIDIUM 22 (24907 NORAD) Tracking and Keplerian Element Data

This shows tracking and keplerian element data for the satellite.

Feedback or suggestion? Click here.




ElementValue
Catalog24907
NameIRIDIUM 22
Epoch Orbit43763
Epoch Day34.80396734
Epoch Year2025
RAAN170.0277
Inclination86.4019
Eccentricity0.0002059
Argument of Perigee93.2865
Mean Anonmoly266.8567
Mean Motion14.35788368
Decay Rate9.1E-06
L11 24907U 97043E 25034.80396734 .00000910 00000+0 30788-3 0 9997
L22 24907 86.4019 170.0277 0002059 93.2865 266.8567 14.35788368437631



Live tracking and technical data element details for IRIDIUM 22 (NORAD 24907). IRIDIUM 22 can be tracked NOW for your location showing map with azimuth and elevation plus other details from your city location.







IsCatalogInMostPopularTable: catalog: 24907, numindb: 385
Update: records affected: 1



GetName: 24907 IRIDIUM 22

Hit Count: updated at: Thu, 15 May 2025 10:18:51 GMT